This is the latest recevied weather packets stored in our database for station/object F6BIJ-13. If no packets are shown the sender has not sent any weather packets the latest 10 day(s).
| Time | Temp. | Humidity | Pressure | Rain* | Wind** | Luminosity | Snow |
|---|---|---|---|---|---|---|---|
| 1778059117 | 11.67° C | 94% | 1011.1 hPa | 2.29 mm | - | - | - |
| 1778058757 | 11.67° C | 94% | 1010.9 hPa | 2.54 mm | - | - | - |
| 1778058397 | 11.67° C | 95% | 1010.9 hPa | 1.78 mm | - | - | - |
| 1778057677 | 11.11° C | 96% | 1010.8 hPa | 0 mm | - | - | - |
| 1778057317 | 11.67° C | 96% | 1010.7 hPa | 0 mm | - | - | - |
| 1778054797 | 11.67° C | 97% | 1010.4 hPa | 1.02 mm | - | - | - |
| 1778054437 | 11.11° C | 97% | 1010.4 hPa | 1.52 mm | - | - | - |
| 1778054077 | 10.56° C | 97% | 1010.4 hPa | 1.78 mm | - | - | - |
| 1778053717 | 11.11° C | 98% | 1010.3 hPa | 2.29 mm | - | - | - |
| 1778053357 | 11.11° C | 98% | 1010.3 hPa | 2.79 mm | - | - | - |
| 1778052997 | 11.67° C | 97% | 1010.2 hPa | 2.79 mm | - | - | - |
| 1778052637 | 11.67° C | 98% | 1010.1 hPa | 2.79 mm | - | - | - |
| 1778052277 | 11.11° C | 98% | 1010.1 hPa | 3.3 mm | - | - | - |
| 1778051916 | 11.11° C | 98% | 1010.1 hPa | 2.79 mm | - | - | - |
| 1778051557 | 10.56° C | 98% | 1009.8 hPa | 2.54 mm | - | - | - |
| 1778051197 | 11.11° C | 98% | 1009.7 hPa | 2.54 mm | - | - | - |
| 1778050837 | 10.56° C | 98% | 1009.6 hPa | 2.03 mm | - | - | - |
| 1778050477 | 10.56° C | 97% | 1009.7 hPa | 2.54 mm | - | - | - |
| 1778050117 | 11.11° C | 97% | 1009.6 hPa | 2.79 mm | - | - | - |
| 1778049757 | 10.56° C | 97% | 1009.6 hPa | 2.54 mm | - | - | - |
| 1778049397 | 10.56° C | 97% | 1009.5 hPa | 2.29 mm | - | - | - |
| 1778049037 | 10.56° C | 97% | 1009.5 hPa | 2.54 mm | - | - | - |
| 1778048677 | 11.67° C | 97% | 1009.3 hPa | 3.3 mm | - | - | - |
| 1778046877 | 10.56° C | 98% | 1009.2 hPa | 2.79 mm | - | - | - |
| 1778046517 | 10.56° C | 97% | 1009.2 hPa | 2.29 mm | - | - | - |
* Rain latest 24 hours (hover to see other rain measurements)
** Current wind speed in m/s (hover to see current wind gust speed)